Weather History for KGAI - April, 2013

Change the Weather History Date:

Tuesday, April 30, 2013

  Actual Average (KCGS) Record (KCGS)
Temperature  
Mean Temperature 56 °F -  
Max Temperature 60 °F 70 °F 91 °F (1974)
Min Temperature 50 °F 48 °F 33 °F (1961)
Degree Days  
Heating Degree Days 10    
Growing Degree Days 6 (Base 50)    
Moisture  
Dew Point 53 °F    
Average Humidity 91    
Maximum Humidity 94    
Minimum Humidity 77    
Precipitation  
Precipitation 0.06 in - - ()
Sea Level Pressure  
Sea Level Pressure 30.22 in    
Wind  
Wind Speed 4 mph (ESE)    
Max Wind Speed 10 mph    
Max Gust Speed 17 mph    
Visibility 6 miles    
Events      
Averages and records for this station are not official NWS values.
T = Trace of Precipitation, MM = Missing Value Source: NWS Daily Summary

Daily Weather History Graph

Daily Weather History Graph

Search for Another Location

Airport or City:

Trip Planner

Search our weather history database for the weather conditions in past years. The results will help you decide how hot, cold, wet, or windy it might be!

Date:

Astronomy

Apr. 30, 2013 Rise Set
Actual Time 6:11 AM EDT 8:01 PM EDT
Civil Twilight 5:42 AM EDT 8:29 PM EDT
Nautical Twilight 5:07 AM EDT 9:05 PM EDT
Astronomical Twilight 4:30 AM EDT 9:42 PM EDT
Moon 12:21 AM EDT (4/30) 10:38 AM EDT (4/30)
Length of Visible Light 14h 47m
Length of Day
13h 49m
Waning Gibbous, 70% of the Moon is Illuminated
Apr 30
Waning Gibbous
May 2
Last Quarter
May 9
New
May 18
First Quarter
May 25
Full

Hourly Weather History & Observations

Time (EDT) Temp. Dew Point Humidity Pressure Visibility Wind Dir Wind Speed Gust Speed Precip Events Conditions
12:15 AM 53.6 °F 51.8 °F 94% 30.14 in 10.0 mi ESE 5.8 mph - N/A   Overcast
12:35 AM 53.6 °F 51.8 °F 94% 30.13 in 2.5 mi ESE 4.6 mph - N/A   Overcast
12:55 AM 53.6 °F 51.8 °F 94% 30.13 in 3.0 mi ESE 4.6 mph - N/A   Overcast
1:15 AM 53.6 °F 51.8 °F 94% 30.13 in 2.0 mi SE 4.6 mph - N/A   Overcast
1:35 AM 53.6 °F 51.8 °F 94% 30.13 in 2.0 mi Calm Calm - N/A   Overcast
1:55 AM 53.6 °F 51.8 °F 94% 30.13 in 3.0 mi Calm Calm - N/A   Overcast
2:15 AM 53.6 °F 51.8 °F 94% 30.13 in 3.0 mi Calm Calm - N/A   Overcast
2:35 AM 53.6 °F 51.8 °F 94% 30.12 in 5.0 mi East 3.5 mph - 0.01 in   Overcast
2:55 AM 55.4 °F 51.8 °F 88% 30.12 in 3.0 mi Calm Calm - 0.01 in   Overcast
3:15 AM 53.6 °F 51.8 °F 94% 30.12 in 3.0 mi Calm Calm - N/A   Overcast
3:35 AM 53.6 °F 51.8 °F 94% 30.13 in 2.5 mi East 3.5 mph - N/A   Overcast
3:55 AM 53.6 °F 51.8 °F 94% 30.13 in 2.5 mi ENE 3.5 mph - N/A   Overcast
4:15 AM 53.6 °F 51.8 °F 94% 30.13 in 2.0 mi ENE 3.5 mph - N/A   Overcast
4:35 AM 53.6 °F 51.8 °F 94% 30.14 in 2.0 mi ENE 4.6 mph - 0.01 in   Overcast
4:55 AM 53.6 °F 51.8 °F 94% 30.14 in 2.0 mi Calm Calm - 0.01 in   Overcast
5:15 AM 53.6 °F 51.8 °F 94% 30.14 in 2.0 mi Calm Calm - N/A   Overcast
5:35 AM 55.4 °F 51.8 °F 88% 30.15 in 4.0 mi Calm Calm - 0.01 in   Overcast
5:55 AM 53.6 °F 51.8 °F 94% 30.16 in 3.0 mi ENE 3.5 mph - 0.01 in   Overcast
6:15 AM 53.6 °F 51.8 °F 94% 30.16 in 3.0 mi ENE 4.6 mph - N/A   Overcast
6:35 AM 55.4 °F 51.8 °F 88% 30.17 in 2.5 mi East 3.5 mph - 0.01 in   Overcast
6:55 AM 55.4 °F 51.8 °F 88% 30.18 in 2.5 mi East 4.6 mph - 0.01 in   Overcast
7:15 AM 55.4 °F 51.8 °F 88% 30.19 in 5.0 mi Calm Calm - N/A   Overcast
7:35 AM 55.4 °F 53.6 °F 94% 30.19 in 2.0 mi Calm Calm - N/A   Overcast
7:55 AM 55.4 °F 53.6 °F 94% 30.20 in 2.5 mi Calm Calm - N/A   Overcast
8:15 AM 55.4 °F 53.6 °F 94% 30.20 in 3.0 mi East 4.6 mph - N/A   Overcast
8:35 AM 55.4 °F 53.6 °F 94% 30.21 in 2.0 mi East 3.5 mph - N/A   Overcast
8:55 AM 55.4 °F 53.6 °F 94% 30.22 in 2.0 mi ESE 4.6 mph - 0.01 in   Overcast
9:15 AM 55.4 °F 53.6 °F 94% 30.22 in 3.0 mi East 5.8 mph - N/A   Overcast
9:35 AM 55.4 °F 53.6 °F 94% 30.22 in 3.0 mi East 5.8 mph - N/A   Overcast
9:55 AM 55.4 °F 53.6 °F 94% 30.22 in 10.0 mi East 6.9 mph - N/A   Overcast
10:15 AM 55.4 °F 53.6 °F 94% 30.23 in 5.0 mi East 6.9 mph - N/A   Overcast
10:35 AM 55.4 °F 53.6 °F 94% 30.23 in 2.5 mi East 3.5 mph - N/A   Overcast
10:55 AM 55.4 °F 53.6 °F 94% 30.23 in 2.5 mi East 8.1 mph - N/A   Overcast
11:15 AM 55.4 °F 53.6 °F 94% 30.23 in 2.5 mi ESE 5.8 mph - 0.01 in   Overcast
11:35 AM 55.4 °F 53.6 °F 94% 30.24 in 3.0 mi East 8.1 mph - 0.01 in   Overcast
11:55 AM 55.4 °F 53.6 °F 94% 30.24 in 2.5 mi ESE 5.8 mph - 0.01 in   Overcast
12:15 PM 55.4 °F 53.6 °F 94% 30.24 in 1.8 mi ESE 9.2 mph - N/A   Overcast
12:35 PM 57.2 °F 53.6 °F 88% 30.23 in 5.0 mi ESE 9.2 mph - N/A   Overcast
12:55 PM 57.2 °F 53.6 °F 88% 30.24 in 5.0 mi ESE 3.5 mph - N/A   Overcast
1:15 PM 57.2 °F 53.6 °F 88% 30.23 in 10.0 mi SE 6.9 mph - N/A   Overcast
1:35 PM 57.2 °F 53.6 °F 88% 30.23 in 3.0 mi East 6.9 mph - N/A   Overcast
1:55 PM 57.2 °F 55.4 °F 94% 30.24 in 10.0 mi East 4.6 mph - N/A   Overcast
2:15 PM 57.2 °F 53.6 °F 88% 30.24 in 10.0 mi SE 10.4 mph - N/A   Overcast
2:35 PM 60.8 °F 53.6 °F 77% 30.24 in 10.0 mi ESE 8.1 mph 17.3 mph N/A   Overcast
2:55 PM 57.2 °F 53.6 °F 88% 30.24 in 8.0 mi ESE 5.8 mph - N/A   Overcast
3:15 PM 59.0 °F 53.6 °F 82% 30.24 in 9.0 mi SE 10.4 mph - N/A   Overcast
3:35 PM 57.2 °F 53.6 °F 88% 30.25 in 8.0 mi ESE 8.1 mph - N/A   Overcast
3:55 PM 59.0 °F 53.6 °F 82% 30.25 in 10.0 mi East 6.9 mph - N/A   Overcast
4:15 PM 57.2 °F 53.6 °F 88% 30.26 in 3.0 mi ESE 8.1 mph - N/A   Overcast
4:35 PM 57.2 °F 53.6 °F 88% 30.27 in 10.0 mi ESE 6.9 mph - N/A   Overcast
4:55 PM 57.2 °F 53.6 °F 88% 30.26 in 6.0 mi ESE 6.9 mph - N/A   Overcast
5:15 PM 57.2 °F 53.6 °F 88% 30.26 in 10.0 mi East 5.8 mph - N/A   Overcast
5:35 PM 57.2 °F 51.8 °F 82% 30.26 in 10.0 mi ESE 5.8 mph - N/A   Overcast
5:55 PM 57.2 °F 53.6 °F 88% 30.27 in 10.0 mi ESE 4.6 mph - N/A   Overcast
6:15 PM 57.2 °F 53.6 °F 88% 30.27 in 10.0 mi SE 4.6 mph - N/A   Overcast
6:35 PM 57.2 °F 53.6 °F 88% 30.27 in 10.0 mi ESE 5.8 mph - N/A   Mostly Cloudy
6:55 PM 57.2 °F 53.6 °F 88% 30.27 in 10.0 mi ESE 4.6 mph - N/A   Overcast
7:15 PM 57.2 °F 53.6 °F 88% 30.27 in 8.0 mi ESE 3.5 mph - N/A   Overcast
7:35 PM 57.2 °F 53.6 °F 88% 30.27 in 10.0 mi East 3.5 mph - N/A   Overcast
7:55 PM 57.2 °F 53.6 °F 88% 30.27 in 10.0 mi SE 3.5 mph - N/A   Overcast
8:15 PM 57.2 °F 53.6 °F 88% 30.28 in 10.0 mi SE 3.5 mph - N/A   Overcast
8:35 PM 57.2 °F 53.6 °F 88% 30.28 in 10.0 mi Calm Calm - N/A   Mostly Cloudy
8:55 PM 55.4 °F 53.6 °F 94% 30.29 in 10.0 mi SSE 3.5 mph - N/A   Overcast
9:15 PM 55.4 °F 53.6 °F 94% 30.30 in 10.0 mi SSE 3.5 mph - N/A   Overcast
9:35 PM 55.4 °F 51.8 °F 88% 30.30 in 10.0 mi SE 3.5 mph - N/A   Overcast
10:15 PM 55.4 °F 51.8 °F 88% 30.31 in 10.0 mi Calm Calm - N/A   Mostly Cloudy
10:35 PM 55.4 °F 50.0 °F 82% 30.31 in 10.0 mi Calm Calm - N/A   Mostly Cloudy
10:55 PM 53.6 °F 50.0 °F 88% 30.32 in 10.0 mi Calm Calm - N/A   Scattered Clouds
11:15 PM 51.8 °F 48.2 °F 88% 30.31 in 10.0 mi Calm Calm - N/A   Partly Cloudy
11:35 PM 51.8 °F 48.2 °F 88% 30.32 in 10.0 mi Calm Calm - N/A   Clear
11:55 PM 50.0 °F 48.2 °F 94% 30.32 in 7.0 mi Calm Calm - N/A   Clear